Teterboro, NJ

1:00 PM EDT on May 27, 2017 (GMT -0400)
Teterboro

Weather History for KTEB - February, 2014

Change the Weather History Date:

Saturday, February 15, 2014

  Actual Average Record
Temperature  
Mean Temperature 32 °F -  
Max Temperature 37 °F 40 °F 57 °F (2005)
Min Temperature 28 °F 25 °F 1 °F (2015)
Degree Days  
Heating Degree Days 32    
Moisture  
Dew Point 26 °F    
Average Humidity 73    
Maximum Humidity 85    
Minimum Humidity 53    
Precipitation  
Precipitation 0.13 in - - ()
Sea Level Pressure  
Sea Level Pressure 29.67 in    
Wind  
Wind Speed 7 mph (North)    
Max Wind Speed 23 mph    
Max Gust Speed 33 mph    
Visibility 5 miles    
Events Fog , Rain , Snow    
Averages and records for this station are not official NWS values.
T = Trace of Precipitation, MM = Missing Value Source: NWS Daily Summary

Daily Weather History Graph

Daily Weather History Graph

Search for Another Location

Airport or City:

Trip Planner

Search our weather history database for the weather conditions in past years. The results will help you decide how hot, cold, wet, or windy it might be!

Date:

Astronomy

Feb. 15, 2014 Rise Set
Actual Time 6:50 AM EST 5:30 PM EST
Civil Twilight 6:22 AM EST 5:59 PM EST
Nautical Twilight 5:50 AM EST 6:31 PM EST
Astronomical Twilight 5:18 AM EST 7:03 PM EST
Moon 6:29 PM EST (2/15) 6:47 AM EST (2/15)
Length of Visible Light 11h 36m
Length of Day
10h 40m
Full, 100% of the Moon is Illuminated
Feb 15
Full
Feb 22
Last Quarter
Mar 1
New
Mar 8
First Quarter
Mar 16
Full

Hourly Weather History & Observations

Time (EST) Temp. Windchill Dew Point Humidity Pressure Visibility Wind Dir Wind Speed Gust Speed Precip Events Conditions
12:51 AM 30.0 °F - 24.1 °F 79% 29.78 in 8.0 mi Calm Calm - N/A   Overcast
1:51 AM 28.9 °F - 23.0 °F 78% 29.78 in 10.0 mi Calm Calm - N/A   Mostly Cloudy
2:51 AM 30.9 °F - 25.0 °F 79% 29.78 in 10.0 mi Calm Calm - N/A   Overcast
3:51 AM 30.0 °F - 25.0 °F 82% 29.77 in 10.0 mi Calm Calm - N/A   Overcast
4:51 AM 34.0 °F - 26.1 °F 73% 29.77 in 10.0 mi Calm Calm - N/A   Overcast
5:51 AM 34.0 °F 31.0 °F 26.1 °F 73% 29.76 in 10.0 mi North 3.5 mph - N/A   Overcast
6:51 AM 33.1 °F 27.7 °F 26.1 °F 75% 29.75 in 10.0 mi North 5.8 mph - N/A   Overcast
7:51 AM 34.0 °F 29.8 °F 25.0 °F 70% 29.74 in 10.0 mi North 4.6 mph - N/A   Overcast
8:51 AM 37.0 °F 32.4 °F 24.1 °F 59% 29.75 in 10.0 mi ENE 5.8 mph - N/A   Overcast
9:51 AM 37.9 °F 32.7 °F 24.1 °F 57% 29.74 in 10.0 mi ENE 6.9 mph - N/A   Overcast
10:51 AM 37.9 °F 32.1 °F 21.9 °F 53% 29.72 in 10.0 mi ENE 8.1 mph - 0.00 in Snow Light Snow
11:30 AM 37.4 °F 28.5 °F 24.8 °F 60% 29.70 in 2.0 mi NE 15.0 mph 21.9 mph 0.00 in Snow Light Snow
11:51 AM 35.1 °F 27.4 °F 27.0 °F 72% 29.68 in 1.0 mi NE 10.4 mph 16.1 mph 0.00 in Snow Light Snow
11:59 AM 35.6 °F 29.2 °F 28.4 °F 75% 29.67 in 0.8 mi NNE 8.1 mph 17.3 mph 0.00 in Snow Light Snow
12:28 PM 35.6 °F 29.2 °F 28.4 °F 75% 29.65 in 1.0 mi NNE 8.1 mph - 0.01 in Snow Light Snow
12:44 PM 35.6 °F 28.6 °F 28.4 °F 75% 29.64 in 3.0 mi NNE 9.2 mph - 0.01 in Snow Light Snow
12:51 PM 35.1 °F 27.4 °F 28.0 °F 76% 29.64 in 4.0 mi North 10.4 mph - 0.01 in Snow Light Snow
1:02 PM 35.6 °F 29.2 °F 28.4 °F 75% 29.64 in 5.0 mi North 8.1 mph - 0.00 in Snow Light Snow
1:51 PM 36.0 °F 27.1 °F 28.0 °F 73% 29.59 in 8.0 mi North 13.8 mph 19.6 mph 0.00 in Rain Light Rain
1:58 PM 35.6 °F 28.0 °F 28.4 °F 75% 29.58 in 6.0 mi North 10.4 mph - 0.00 in Snow Light Snow
2:51 PM 36.0 °F 28.5 °F 27.0 °F 70% 29.60 in 6.0 mi North 10.4 mph - 0.00 in   Haze
3:30 PM 35.6 °F 25.9 °F 26.6 °F 70% 29.60 in 1.2 mi North 16.1 mph - 0.00 in Snow Light Snow
3:40 PM 33.8 °F 23.9 °F 26.6 °F 75% 29.60 in 0.8 mi North 15.0 mph 25.3 mph 0.02 in Snow Light Snow
3:51 PM 33.1 °F 22.2 °F 27.0 °F 78% 29.61 in 0.5 mi North 17.3 mph 26.5 mph 0.02 in Snow Light Snow
3:59 PM 33.8 °F 23.2 °F 26.6 °F 75% 29.60 in 0.5 mi North 17.3 mph 23.0 mph 0.01 in Snow Light Snow
4:41 PM 33.8 °F 25.8 °F 28.4 °F 81% 29.60 in 0.2 mi North 10.4 mph 21.9 mph 0.03 in Fog , Snow Light Snow
4:51 PM 33.1 °F 24.4 °F 28.9 °F 85% 29.61 in 0.2 mi North 11.5 mph - 0.04 in Fog , Snow Light Snow
5:00 PM 33.8 °F 25.8 °F 28.4 °F 81% 29.62 in 0.5 mi NNW 10.4 mph - 0.01 in Fog , Snow Light Snow
5:10 PM 33.8 °F 25.3 °F 28.4 °F 81% 29.62 in 0.8 mi North 11.5 mph - 0.02 in Snow Light Snow
5:51 PM 33.1 °F 23.4 °F 28.0 °F 82% 29.64 in 0.5 mi North 13.8 mph 18.4 mph 0.04 in Snow Light Snow
6:10 PM 33.8 °F 24.3 °F 28.4 °F 81% 29.64 in 0.5 mi North 13.8 mph 20.7 mph 0.00 in Snow Light Snow
6:19 PM 33.8 °F 25.8 °F 28.4 °F 81% 29.64 in 2.0 mi North 10.4 mph - 0.00 in Snow Light Snow
6:29 PM 33.8 °F 24.8 °F 28.4 °F 81% 29.65 in 1.8 mi North 12.7 mph - 0.01 in Snow Light Snow
6:51 PM 33.1 °F 23.9 °F 28.0 °F 82% 29.65 in 1.0 mi North 12.7 mph - 0.01 in Snow Light Snow
7:51 PM 33.1 °F 25.5 °F 28.0 °F 82% 29.65 in 3.0 mi NNW 9.2 mph - 0.01 in Snow Light Snow
8:44 PM 33.8 °F 24.8 °F 24.8 °F 70% 29.65 in 10.0 mi NW 12.7 mph 19.6 mph 0.00 in   Mostly Cloudy
8:51 PM 34.0 °F 24.6 °F 25.0 °F 70% 29.65 in 10.0 mi NNW 13.8 mph - 0.00 in   Scattered Clouds
9:51 PM 30.9 °F 19.4 °F 18.0 °F 59% 29.68 in 10.0 mi NW 17.3 mph 25.3 mph N/A   Clear
10:51 PM 28.9 °F 15.1 °F 15.1 °F 56% 29.71 in 10.0 mi NW 23.0 mph 33.4 mph N/A   Clear
11:51 PM 28.0 °F 14.9 °F 14.0 °F 56% 29.74 in 10.0 mi NW 19.6 mph 32.2 mph 0.00 in   Clear